• în România
  • Lista ţărilor
  • Pe 7 zile
  • Temperatura apei
  • Hartă satelitară
  • Meteo pe hartă
  • Widget-uri
  • user-avatar
    Intrare

    Meteo pe oră la Bregenz

    Astăzi, 29 Martie, Miercuri

    Timp Temperatura Precipitaţii Vânt Presiune Umiditate
    00:00 +3°C° 0 mm 1 m/s 650 mmHg 96%
    01:00 +3°C° 0 mm 1 m/s 650 mmHg 96%
    02:00 +3°C° 0 mm 1 m/s 650 mmHg 96%
    03:00 +2°C° 0 mm 1 m/s 650 mmHg 96%
    04:00 +2°C° 0 mm 1 m/s 650 mmHg 97%
    05:00 +2°C° 0 mm 1 m/s 650 mmHg 96%
    06:00 +2°C° 0 mm 1 m/s 651 mmHg 96%
    07:00 +3°C° 0 mm 0 m/s 651 mmHg 95%
    08:00 +5°C° 0 mm 0 m/s 652 mmHg 90%
    09:00 +7°C° 0 mm 0 m/s 652 mmHg 85%
    10:00 +8°C° 0 mm 0 m/s 653 mmHg 79%
    11:00 +9°C° 0 mm 0 m/s 653 mmHg 75%
    12:00 +10°C° 0 mm 0 m/s 653 mmHg 71%
    13:00 +12°C° 0 mm 1 m/s 653 mmHg 67%
    14:00 +12°C° 0 mm 1 m/s 652 mmHg 67%
    15:00 +12°C° 0 mm 1 m/s 652 mmHg 67%
    16:00 +11°C° 0 mm 1 m/s 652 mmHg 68%
    17:00 +9°C° 0 mm 1 m/s 651 mmHg 76%
    18:00 +6°C° 0 mm 1 m/s 650 mmHg 85%
    19:00 +2°C° 0 mm 0 m/s 650 mmHg 93%
    20:00 +3°C° 0 mm 1 m/s 650 mmHg 93%
    21:00 +3°C° 0 mm 1 m/s 650 mmHg 93%
    22:00 +3°C° 0 mm 1 m/s 651 mmHg 94%
    23:00 +2°C° 0 mm 1 m/s 651 mmHg 93%

    Mâine, 30 Martie, Joi

    Timp Temperatura Precipitaţii Vânt Presiune Umiditate
    00:00 +2°C° 0 mm 1 m/s 651 mmHg 93%
    01:00 +2°C° 0 mm 1 m/s 651 mmHg 92%
    02:00 +2°C° 0 mm 1 m/s 651 mmHg 91%
    03:00 +1°C° 0 mm 1 m/s 650 mmHg 90%
    04:00 +1°C° 0 mm 1 m/s 650 mmHg 89%
    05:00 +2°C° 0 mm 1 m/s 650 mmHg 87%
    06:00 +2°C° 0 mm 1 m/s 650 mmHg 84%
    07:00 +3°C° 0 mm 1 m/s 650 mmHg 82%
    08:00 +5°C° 0 mm 1 m/s 651 mmHg 75%
    09:00 +8°C° 0 mm 1 m/s 652 mmHg 68%
    10:00 +11°C° 0 mm 1 m/s 652 mmHg 61%
    11:00 +12°C° 0 mm 1 m/s 653 mmHg 59%
    12:00 +13°C° 0 mm 1 m/s 653 mmHg 56%
    13:00 +14°C° 0 mm 1 m/s 653 mmHg 53%
    14:00 +14°C° 0 mm 1 m/s 653 mmHg 55%
    15:00 +14°C° 0 mm 1 m/s 652 mmHg 57%
    16:00 +14°C° 0 mm 1 m/s 652 mmHg 58%
    17:00 +11°C° 0 mm 1 m/s 651 mmHg 70%
    18:00 +8°C° 0 mm 1 m/s 650 mmHg 81%
    19:00 +5°C° 0 mm 1 m/s 649 mmHg 92%
    20:00 +5°C° 0 mm 1 m/s 649 mmHg 91%
    21:00 +4°C° 0 mm 1 m/s 649 mmHg 91%
    22:00 +3°C° 0 mm 2 m/s 649 mmHg 91%
    23:00 +3°C° 0 mm 2 m/s 649 mmHg 90%

    Poimâine, 31 Martie, Vineri

    Timp Temperatura Precipitaţii Vânt Presiune Umiditate
    00:00 +3°C° 0 mm 2 m/s 649 mmHg 90%
    01:00 +2°C° 0 mm 2 m/s 649 mmHg 90%
    02:00 +2°C° 0 mm 2 m/s 648 mmHg 90%
    03:00 +2°C° 0 mm 2 m/s 648 mmHg 89%
    04:00 +2°C° 0 mm 2 m/s 648 mmHg 89%
    05:00 +2°C° 0 mm 2 m/s 648 mmHg 88%
    06:00 +2°C° 0 mm 2 m/s 648 mmHg 86%
    07:00 +3°C° 0 mm 2 m/s 648 mmHg 85%
    08:00 +5°C° 0 mm 2 m/s 648 mmHg 76%
    09:00 +8°C° 0 mm 2 m/s 648 mmHg 67%
    10:00 +12°C° 0 mm 1 m/s 649 mmHg 59%
    11:00 +13°C° 0 mm 1 m/s 649 mmHg 55%
    12:00 +14°C° 0 mm 1 m/s 649 mmHg 50%
    13:00 +15°C° 0 mm 1 m/s 649 mmHg 46%
    14:00 +15°C° 0 mm 1 m/s 648 mmHg 49%
    15:00 +15°C° 0 mm 1 m/s 648 mmHg 51%
    16:00 +15°C° 0 mm 2 m/s 648 mmHg 53%
    17:00 +11°C° 0,1 mm 1 m/s 647 mmHg 65%
    18:00 +8°C° 0,1 mm 1 m/s 646 mmHg 78%
    19:00 +5°C° 0,1 mm 1 m/s 645 mmHg 90%
    20:00 +5°C° 0,1 mm 1 m/s 645 mmHg 90%
    21:00 +5°C° 0,1 mm 1 m/s 645 mmHg 90%
    22:00 +3°C° 0,1 mm 2 m/s 645 mmHg 89%
    23:00 +3°C° 0 mm 2 m/s 645 mmHg 89%

    1 Aprilie, Sâmbătă

    Timp Temperatura Precipitaţii Vânt Presiune Umiditate
    00:00 +3°C° 0 mm 2 m/s 644 mmHg 88%
    01:00 +3°C° 0 mm 2 m/s 644 mmHg 87%
    02:00 +2°C° 0 mm 2 m/s 644 mmHg 87%
    03:00 +2°C° 0 mm 2 m/s 644 mmHg 87%
    04:00 +2°C° 0 mm 2 m/s 643 mmHg 86%
    05:00 +2°C° 0 mm 2 m/s 643 mmHg 85%
    06:00 +3°C° 0 mm 2 m/s 643 mmHg 84%
    07:00 +3°C° 0 mm 2 m/s 644 mmHg 83%
    08:00 +6°C° 0 mm 1 m/s 644 mmHg 75%
    09:00 +8°C° 0 mm 1 m/s 644 mmHg 68%
    10:00 +10°C° 0 mm 1 m/s 645 mmHg 60%
    11:00 +11°C° 0 mm 1 m/s 645 mmHg 56%
    12:00 +12°C° 0 mm 2 m/s 645 mmHg 51%
    13:00 +13°C° 0 mm 2 m/s 645 mmHg 47%
    14:00 +12°C° 0,1 mm 2 m/s 645 mmHg 50%
    15:00 +12°C° 0,1 mm 2 m/s 644 mmHg 54%
    16:00 +12°C° 0,1 mm 2 m/s 644 mmHg 57%
    17:00 +9°C° 0,6 mm 1 m/s 644 mmHg 69%
    18:00 +7°C° 0,6 mm 1 m/s 643 mmHg 80%
    19:00 +4°C° 0,6 mm 1 m/s 643 mmHg 91%
    20:00 +4°C° 0,4 mm 1 m/s 643 mmHg 92%
    21:00 +3°C° 0,4 mm 1 m/s 644 mmHg 92%
    22:00 +3°C° 0,4 mm 1 m/s 644 mmHg 92%
    23:00 +3°C° 0,2 mm 1 m/s 644 mmHg 92%

    2 Aprilie, Duminică

    Timp Temperatura Precipitaţii Vânt Presiune Umiditate
    00:00 +3°C° 0,2 mm 1 m/s 644 mmHg 92%
    01:00 +3°C° 0,2 mm 1 m/s 645 mmHg 92%
    02:00 +3°C° 0 mm 1 m/s 645 mmHg 92%
    03:00 +2°C° 0 mm 1 m/s 644 mmHg 93%
    04:00 +1°C° 0 mm 0 m/s 644 mmHg 93%
    05:00 +2°C° 0 mm 0 m/s 645 mmHg 92%
    06:00 +2°C° 0 mm 0 m/s 645 mmHg 91%
    07:00 +3°C° 0 mm 0 m/s 646 mmHg 90%
    08:00 +5°C° 0 mm 1 m/s 646 mmHg 85%
    09:00 +7°C° 0 mm 1 m/s 647 mmHg 80%
    10:00 +8°C° 0 mm 1 m/s 648 mmHg 75%
    11:00 +9°C° 0,1 mm 1 m/s 648 mmHg 74%
    12:00 +9°C° 0,1 mm 1 m/s 648 mmHg 74%
    13:00 +10°C° 0,1 mm 1 m/s 648 mmHg 74%
    14:00 +9°C° 0,3 mm 1 m/s 648 mmHg 76%
    15:00 +9°C° 0,3 mm 1 m/s 648 mmHg 79%
    16:00 +9°C° 0,3 mm 1 m/s 648 mmHg 81%
    17:00 +8°C° 0,4 mm 1 m/s 648 mmHg 86%
    18:00 +6°C° 0,4 mm 1 m/s 648 mmHg 92%
    19:00 +5°C° 0,4 mm 1 m/s 648 mmHg 97%
    20:00 +5°C° 0,3 mm 1 m/s 648 mmHg 97%
    21:00 +5°C° 0,3 mm 1 m/s 648 mmHg 97%
    22:00 +4°C° 0,3 mm 1 m/s 649 mmHg 98%
    23:00 +4°C° 0,3 mm 1 m/s 649 mmHg 98%

    3 Aprilie, Luni

    Timp Temperatura Precipitaţii Vânt Presiune Umiditate
    00:00 +4°C° 0,3 mm 1 m/s 649 mmHg 98%
    01:00 +3°C° 0,3 mm 1 m/s 649 mmHg 98%
    02:00 +3°C° 0,2 mm 1 m/s 649 mmHg 98%
    03:00 +3°C° 0,2 mm 1 m/s 649 mmHg 98%
    04:00 +3°C° 0,2 mm 1 m/s 649 mmHg 98%
    05:00 +3°C° 0,1 mm 1 m/s 649 mmHg 97%
    06:00 +4°C° 0,1 mm 1 m/s 649 mmHg 97%
    07:00 +4°C° 0,1 mm 1 m/s 650 mmHg 97%
    08:00 +6°C° 0 mm 1 m/s 650 mmHg 93%
    09:00 +7°C° 0 mm 1 m/s 650 mmHg 90%
    10:00 +8°C° 0 mm 1 m/s 651 mmHg 86%
    11:00 +9°C° 0,1 mm 1 m/s 651 mmHg 83%
    12:00 +8°C° 0,1 mm 2 m/s 651 mmHg 80%
    13:00 +9°C° 0,1 mm 2 m/s 651 mmHg 77%
    14:00 +9°C° 0,2 mm 2 m/s 651 mmHg 78%
    15:00 +9°C° 0,2 mm 2 m/s 650 mmHg 79%
    16:00 +9°C° 0,2 mm 2 m/s 650 mmHg 81%
    17:00 +8°C° 0,4 mm 2 m/s 650 mmHg 86%
    18:00 +7°C° 0,4 mm 1 m/s 650 mmHg 91%
    19:00 +6°C° 0,4 mm 1 m/s 650 mmHg 97%
    20:00 +5°C° 0,1 mm 1 m/s 650 mmHg 97%
    21:00 +4°C° 0,1 mm 1 m/s 650 mmHg 98%
    22:00 +4°C° 0,1 mm 1 m/s 650 mmHg 98%
    23:00 +3°C° 0 mm 1 m/s 650 mmHg 98%
    Arată mai mult